Погода в Няксимволе

Погода в Няксимволе : погода сейчас, прогноз погоды и архив. Всё, что Вы хотите узнать о погоде в Няксимволе!

Хотите узнать прогноз погоды в Няксимволе? Тогда Вам сюда: Погода в Няксимволе

Поиск расширенной информации на нашем сайте:

Другие новости

Новости СМИ2

Главная страница сайта

Новости сайта

03.07.2017

Напоминаем, что на нашем специализированном сайте Метеоцентр.Азия вы можете получить высокодетализированные автоматические прогнозы погоды по пунктам России, СНГ и мира в авиационном формате (включающие направление и скорость ветра, видимость, явления погоды, количество и форму облачности, нижнюю и верхнюю границу облачности).


Погода в Няксимволе - сегодня

Время (UTC), дата Ветер
(°,м/с) 
Видим.   Явления Облачность Т
(°С)
Тd
(°С)
f(%) Тe
(°С)
Pmin
(гПа)
dP
(гПа)
Po
(мм)
O2
(г/м3)
Тmin Tmax R s Состояние
почвы
12 18.05.18 060 (СВ) 20000 м    ясно 
+9.4 -9.9 24 +9  1022.2  -0.1  762  298           
18 18.05.18 070 (В) 20000 м    3/0 верхняя 
[Ci fib]
+2.3 -5.7 55 +1  1021.1  -0.6  761  305           
21 18.05.18 060 (СВ) 20000 м    3/0 верхняя 
[Ci fib]
-0.6 -5 72 -1  1020.8  -0.4  761  308           
00 19.05.18 140 (ЮВ) 20000 м    4/0 верхняя 
[Ci sp]
+1.9 -6.4 54 +1  1019.6  -1.1  760  305           
03 19.05.18 170 (Ю) 20000 м    6/0 верхняя 
[Ci sp]
+5.4 -6.1 43 +4  1016.9  -2.6  758  300  -1.7        влажная 
06 19.05.18 180 (Ю) 20000 м    9/0 средняя, верхняя 
[Ac As|Ci fib]
+11 -4.8 33 +10  1014.6  -2.6  756  293           
12 19.05.18 170 (Ю) 5{11}  20000 м    10/10 1000 м 
[Sc]
+12.2 -1.6 38 +11  1010.3  -1.7  753  291           
15 19.05.18 170 (Ю) 3{12}  20000 м  {дождь}  10/10 1000 м 
[Sc]
+12 +1.8 50 +12  1007.9  -2.4  751  290    +14.3  0.0     
18 19.05.18 160 (Ю) 20000 м  {дождь}  10/10 1000 м 
[Sc]
+9 +4.1 71 +8  1005.6  -2.4  750  292           
21 19.05.18 150 (ЮВ) н/о    н/о 
+7.8 +4.9 82 +7  1002.7  -2.9  747  292           
00 20.05.18 170 (Ю) 20000 м  {дождь}  10/10 600 м 
[Sc]
+6.5 +5.6 94 +6  1001.1  -1.6  746  293           
03 20.05.18 160 (Ю) 20000 м  слаб. дождь  10/10 600 м 
[Sc]
+6.6 +5.7 94 +8  999.8  -1.2  745  292  +6.4    0.6    сухая 
06 20.05.18 320 (СЗ) 20000 м  слаб. дождь  10/10 600 м 
[Sc]
+8 +7.1 94 +9  999  -1.2  745  290           
09 20.05.18 300 (СЗ) 20000 м  {дождь}  10/10 1000 м 
[Sc]
+6.8 +6.4 97 +7  1000.8  1.8  746  292           
12 20.05.18 310 (СЗ) 20000 м    10/10 1000 м 
[Sc]
+7 +5.4 90 +6  1004  3.2  748  293           
15 20.05.18 320 (СЗ) 20000 м  {дождь}  10/10 1000 м 
[Sc]
+5.9 +4.3 89 +5  1007.4  3.3  751  295    +8.2  0.4     
18 20.05.18 320 (СЗ) 20000 м  {дождь}  10/10 1000 м 
[Sc]
+3.8 +2.8 93 +2  1011.1  3.6  754  299           
21 20.05.18 340 (С) 20000 м    10/10 1000 м 
[]
+2.6 +0 83 +1  1014  2.8  756  302           
00 21.05.18 330 (СЗ) 20000 м    8/8 1000 м 
[Sc]
+1.5 -0.5 87 +1  1016.6  2.6  758  304           
03 21.05.18 310 (СЗ) 20000 м    3/3 1000 м 
[Sc]
+4.9 -0.6 68 +5  1018.3  1.8  759  301  +1.5    0.0    влажная 
06 21.05.18 320 (СЗ) 20000 м    6/0 средняя, верхняя 
[Ac trans|Ci fib]
+9.3 -0.5 50 +10  1019.1  0.9  760  296           
09 21.05.18 320 (СЗ) 20000 м    3/0 верхняя 
[Ci fib]
+13.1 -2.4 34 +13  1019.6  0.6  760  293           
12 21.05.18 320 (СЗ) 20000 м    5/0 средняя, верхняя 
[Ac trans|Ci fib]
+14.7 +1.1 40 +15  1018.9  -0.7  760  290           
18 21.05.18 230 (ЮЗ) 20000 м    10/0 средняя 
[As trans]
+9.7 +1.9 58 +10  1017.1  -2.2  758  295           
21 21.05.18 250 (З) 20000 м    10/0 средняя 
[As trans]
+10.2 +3.3 62 +10  1013.8  -3.3  756  293           
Время (UTC), дата Ветер
(°,м/с) 
Видим.   Явления Облачность Т
(°С)
Тd
(°С)
f(%) Тe
(°С)
Pmin
(гПа)
dP
(гПа)
Po
(мм)
O2
(г/м3)
Тmin Tmax R s Состояние
почвы

Для получения пояснительной информации подведите курсор к названию столбца.

ПОГОДА в Няксимволе - архив

Всё, что Вы хотите узнать о погоде в Няксимволе - удобно и подробно!

Выберите нужную дату (начиная с 1 января 2015* года) и нажмите кнопку "Найти".
Будут отображены архивные сводки погоды по пункту Няксимволь, начиная с указанной даты.


Отображать данные в формате CSV (для использования в таблицах Excel)


Внимание! Наш архив погоды предназначен исключительно для личного некоммерческого использования в познавательных целях. Если Вам необходимы официальные справки о состоянии погоды (для производственных, юридических, коммерческих и т.п. целей), обращайтесь в органы Росгидромета.

*Примечание: данная дата относится к архиву по метеостанциям СССР (Россия, СНГ, Балтия).
Архив по метеостанциям Зарубежной Европы и Азии (кроме Китая) хранится 10 дней, по другим регионам земного шара (Китай, Африка, Америка, Австралия, Океания) - 1 день.

Няксимволь - район местоположения метеостанции


Название, широта, долгота, высота метеостанции:
Няксимволь 62.4°ш. 60.9°д. 51 м над ур. моря [Российская Федерация]

Дополнительная информация

В oтличие oт бoльшинства пoгoдных сайтoв мы публикуем пoдрoбную метеoинфoрмацию в детальнoм прoфессиoнальнoм фoрмате.

Характеристики температуры и влажнoсти вoздуха измеряются на высoте 2 м в тени вдали oт зданий и деревьев.
Скoрoсть ветра измеряется на высoте 10 м (на урoвне рoста челoвека скoрoсть ветра ниже в 1.5-2 раза). Если метеoстанция нахoдится в гoрoде или в лесу, тo скoрoсть ветра занижена на 2-4 м/с пo сравнению с oткрытым местoм. Скoрoсть ветра над акватoриями крупных рек и oзёр, а также на вершинах хoлмoв на 2-5 м/с выше, чем в oбычных услoвиях.
Атмoсфернoе давление в разных тoчках местнoсти мoжет значительнo oтличаться oт давления на метеoстанции, в зависимoсти oт услoвий рельефа (при пoдъёме на 10 м давление пoнижается примернo на 1 мм рт.ст.).